Precipitable_Water
0.75 0.73 0.72 0.74 0.75 0.72 0.69 0.66 0.65 0.63 0.61 0.64 0.62 0.60 0.59 0.59 0.57 0.55 0.55 0.52 0.49 0.49 0.48 0.46 0.45 0.46 0.35 0.26 0.25 0.44 0.50 0.57 0.70 0.76 0.71 0.68 0.60 0.56 0.55 0.65 0.85 0.95 1.04 1.04 1.05 0.86 0.89
0.74 0.73 0.72 0.71 0.74 0.72 0.69 0.66 0.66 0.64 0.60 0.65 0.65 0.62 0.58 0.57 0.57 0.54 0.53 0.51 0.48 0.46 0.46 0.47 0.46 0.47 0.33 0.15 0.35 0.38 0.37 0.46 0.53 0.74 0.72 0.71 0.48 0.57 0.56 0.62 0.65 0.76 0.76 0.87 0.88 0.93 0.90
0.73 0.72 0.71 0.70 0.72 0.70 0.68 0.65 0.64 0.65 0.60 0.62 0.65 0.63 0.60 0.57 0.57 0.54 0.49 0.47 0.46 0.46 0.46 0.48 0.49 0.43 0.25 0.17 0.37 0.38 0.32 0.36 0.54 0.71 0.72 0.71 0.56 0.53 0.59 0.55 0.70 0.70 0.58 0.65 0.78 0.88 0.90
0.71 0.71 0.69 0.68 0.70 0.68 0.66 0.65 0.64 0.63 0.59 0.61 0.66 0.65 0.60 0.56 0.55 0.53 0.48 0.43 0.43 0.45 0.48 0.49 0.50 0.41 0.16 0.23 0.35 0.34 0.32 0.27 0.41 0.55 0.63 0.70 0.61 0.47 0.50 0.58 0.60 0.54 0.46 0.49 0.71 0.86 0.89
0.70 0.69 0.68 0.67 0.66 0.67 0.66 0.64 0.63 0.63 0.60 0.62 0.66 0.66 0.61 0.57 0.54 0.52 0.49 0.46 0.44 0.46 0.49 0.50 0.37 0.39 0.17 0.30 0.25 0.26 0.29 0.21 0.33 0.45 0.53 0.63 0.50 0.39 0.45 0.44 0.43 0.47 0.45 0.55 0.68 0.91 0.85
0.71 0.69 0.67 0.66 0.65 0.66 0.64 0.63 0.62 0.61 0.60 0.63 0.67 0.65 0.62 0.58 0.53 0.49 0.48 0.46 0.47 0.47 0.52 0.50 0.43 0.29 0.28 0.19 0.25 0.23 0.24 0.22 0.23 0.26 0.41 0.52 0.50 0.37 0.37 0.39 0.38 0.47 0.58 0.69 0.69 0.83 0.85
0.70 0.68 0.66 0.66 0.66 0.65 0.64 0.63 0.62 0.60 0.58 0.62 0.68 0.64 0.62 0.59 0.53 0.51 0.46 0.42 0.51 0.51 0.49 0.23 0.27 0.16 0.25 0.29 0.29 0.20 0.18 0.19 0.22 0.22 0.19 0.34 0.34 0.31 0.35 0.45 0.53 0.54 0.54 0.61 0.73 0.82 0.76
0.69 0.67 0.66 0.65 0.67 0.65 0.64 0.62 0.61 0.60 0.59 0.65 0.68 0.63 0.61 0.57 0.53 0.53 0.50 0.49 0.50 0.51 0.33 0.47 0.37 0.34 0.35 0.33 0.20 0.19 0.23 0.16 0.17 0.16 0.21 0.22 0.22 0.32 0.42 0.47 0.50 0.51 0.51 0.53 0.67 0.69 0.64
0.69 0.67 0.65 0.66 0.65 0.64 0.63 0.62 0.61 0.60 0.62 0.68 0.67 0.62 0.59 0.54 0.53 0.55 0.47 0.47 0.58 0.53 0.29 0.21 0.27 0.28 0.29 0.28 0.19 0.20 0.23 0.20 0.18 0.17 0.18 0.18 0.20 0.27 0.30 0.31 0.40 0.43 0.43 0.48 0.55 0.58 0.65
0.67 0.65 0.65 0.65 0.63 0.62 0.63 0.61 0.61 0.62 0.66 0.69 0.65 0.61 0.57 0.54 0.51 0.58 0.54 0.63 0.58 0.57 0.22 0.16 0.22 0.30 0.29 0.28 0.19 0.20 0.24 0.18 0.17 0.15 0.17 0.18 0.22 0.23 0.23 0.24 0.22 0.15 0.34 0.42 0.52 0.51 0.42
0.68 0.65 0.65 0.64 0.62 0.62 0.62 0.61 0.62 0.64 0.67 0.67 0.62 0.59 0.59 0.61 0.57 0.56 0.61 0.63 0.54 0.48 0.16 0.31 0.31 0.37 0.31 0.22 0.23 0.21 0.22 0.21 0.15 0.15 0.17 0.14 0.18 0.20 0.20 0.20 0.22 0.17 0.24 0.30 0.37 0.43 0.42
0.67 0.65 0.64 0.62 0.61 0.60 0.60 0.62 0.64 0.66 0.67 0.65 0.60 0.59 0.63 0.63 0.58 0.60 0.59 0.55 0.50 0.23 0.13 0.28 0.32 0.29 0.24 0.22 0.22 0.27 0.20 0.23 0.23 0.18 0.17 0.15 0.20 0.20 0.20 0.21 0.21 0.21 0.18 0.23 0.35 0.42 0.41
0.69 0.66 0.64 0.62 0.60 0.59 0.60 0.61 0.64 0.66 0.67 0.63 0.59 0.63 0.63 0.65 0.53 0.70 0.59 0.49 0.24 0.17 0.32 0.26 0.29 0.29 0.25 0.22 0.20 0.22 0.20 0.19 0.17 0.13 0.12 0.15 0.15 0.19 0.21 0.18 0.21 0.20 0.17 0.14 0.23 0.28 0.30
0.72 0.69 0.66 0.63 0.61 0.59 0.59 0.59 0.61 0.65 0.67 0.59 0.62 0.65 0.64 0.60 0.71 0.67 0.54 0.37 0.20 0.26 0.28 0.34 0.34 0.30 0.24 0.22 0.22 0.23 0.20 0.18 0.20 0.17 0.16 0.16 0.13 0.17 0.19 0.18 0.17 0.18 0.18 0.14 0.16 0.22 0.26
0.74 0.72 0.69 0.65 0.63 0.61 0.58 0.57 0.57 0.64 0.65 0.62 0.66 0.71 0.63 0.61 0.63 0.63 0.43 0.23 0.24 0.39 0.40 0.38 0.37 0.31 0.29 0.29 0.27 0.27 0.24 0.21 0.21 0.21 0.14 0.16 0.16 0.24 0.24 0.23 0.20 0.15 0.16 0.18 0.17 0.24 0.25
0.74 0.72 0.70 0.67 0.64 0.63 0.60 0.56 0.54 0.58 0.63 0.69 0.62 0.66 0.64 0.76 0.64 0.53 0.37 0.27 0.36 0.51 0.43 0.40 0.31 0.33 0.27 0.28 0.27 0.28 0.27 0.28 0.23 0.24 0.23 0.17 0.15 0.21 0.24 0.27 0.23 0.19 0.17 0.14 0.17 0.15 0.16
0.73 0.72 0.70 0.68 0.66 0.64 0.62 0.59 0.54 0.55 0.60 0.76 0.84 0.72 0.73 0.81 0.62 0.43 0.28 0.28 0.44 0.55 0.45 0.35 0.32 0.28 0.29 0.32 0.39 0.37 0.30 0.33 0.31 0.25 0.24 0.22 0.19 0.17 0.24 0.23 0.21 0.18 0.16 0.15 0.16 0.16 0.14
0.72 0.70 0.69 0.69 0.66 0.63 0.60 0.58 0.55 0.54 0.56 0.78 0.80 0.61 0.91 0.87 0.50 0.40 0.30 0.45 0.53 0.52 0.52 0.41 0.35 0.29 0.26 0.33 0.37 0.39 0.37 0.36 0.37 0.29 0.24 0.24 0.22 0.18 0.20 0.25 0.26 0.22 0.20 0.18 0.14 0.13 0.16
0.78 0.73 0.69 0.68 0.66 0.66 0.64 0.62 0.58 0.49 0.54 0.55 0.72 0.79 0.89 0.79 0.36 0.47 0.59 0.61 0.65 0.55 0.45 0.40 0.38 0.37 0.29 0.25 0.30 0.37 0.38 0.42 0.44 0.38 0.27 0.32 0.24 0.20 0.19 0.22 0.24 0.22 0.23 0.21 0.19 0.17 0.14
0.79 0.76 0.72 0.68 0.67 0.66 0.65 0.63 0.61 0.58 0.54 0.51 0.68 0.64 0.77 0.78 0.62 0.55 0.48 0.56 0.56 0.68 0.59 0.53 0.45 0.44 0.42 0.32 0.31 0.31 0.34 0.42 0.61 0.58 0.54 0.37 0.28 0.26 0.24 0.23 0.23 0.20 0.22 0.23 0.20 0.16 0.16
0.81 0.77 0.73 0.69 0.67 0.65 0.63 0.63 0.61 0.58 0.57 0.57 0.71 0.64 0.61 0.58 0.62 0.61 0.59 0.61 0.55 0.50 0.59 0.59 0.54 0.50 0.45 0.37 0.38 0.37 0.40 0.45 0.59 0.70 0.66 0.57 0.38 0.37 0.31 0.29 0.25 0.23 0.23 0.25 0.24 0.23 0.17
0.88 0.85 0.78 0.70 0.67 0.65 0.64 0.63 0.63 0.61 0.63 0.64 0.49 0.46 0.58 0.53 0.51 0.46 0.48 0.45 0.41 0.43 0.48 0.48 0.52 0.54 0.63 0.50 0.48 0.41 0.48 0.58 0.62 0.70 0.71 0.71 0.49 0.49 0.35 0.33 0.29 0.27 0.24 0.25 0.24 0.25 0.22
0.88 0.90 0.90 0.82 0.71 0.66 0.65 0.63 0.62 0.60 0.65 0.63 0.68 0.60 0.45 0.35 0.35 0.35 0.39 0.45 0.44 0.46 0.48 0.51 0.53 0.55 0.57 0.63 0.79 0.74 0.67 0.65 0.74 0.68 0.65 0.66 0.59 0.59 0.39 0.35 0.33 0.26 0.22 0.24 0.24 0.24 0.24
0.86 0.88 0.90 0.91 0.89 0.80 0.73 0.70 0.67 0.64 0.61 0.57 0.65 0.63 0.47 0.36 0.40 0.39 0.43 0.45 0.42 0.42 0.37 0.38 0.41 0.43 0.55 0.64 0.77 0.78 0.71 0.64 0.67 0.69 0.73 0.60 0.61 0.60 0.46 0.42 0.27 0.32 0.47 0.37 0.30 0.31 0.29
0.81 0.82 0.84 0.87 0.90 0.90 0.87 0.84 0.79 0.74 0.71 0.59 0.63 0.62 0.50 0.38 0.42 0.39 0.41 0.43 0.45 0.44 0.40 0.41 0.43 0.42 0.46 0.52 0.49 0.52 0.50 0.51 0.50 0.55 0.55 0.60 0.55 0.48 0.44 0.44 0.49 0.44 0.55 0.55 0.43 0.31 0.36
0.78 0.78 0.79 0.80 0.82 0.87 0.90 0.90 0.88 0.87 0.85 0.74 0.77 0.79 0.60 0.43 0.39 0.47 0.43 0.44 0.39 0.40 0.41 0.47 0.51 0.54 0.46 0.30 0.36 0.31 0.33 0.41 0.47 0.54 0.67 0.67 0.66 0.54 0.51 0.41 0.40 0.52 0.62 0.68 0.62 0.34 0.38
0.80 0.78 0.77 0.76 0.77 0.79 0.83 0.86 0.88 0.89 0.87 0.81 0.76 0.85 0.70 0.54 0.52 0.52 0.46 0.44 0.49 0.45 0.40 0.44 0.52 0.50 0.55 0.37 0.28 0.26 0.34 0.56 0.48 0.56 0.63 0.62 0.61 0.51 0.51 0.54 0.58 0.69 0.71 0.68 0.45 0.44 0.62
0.86 0.84 0.80 0.76 0.75 0.76 0.80 0.84 0.86 0.87 0.86 0.81 0.73 0.86 0.74 0.58 0.54 0.57 0.56 0.51 0.49 0.46 0.39 0.43 0.39 0.44 0.47 0.43 0.46 0.41 0.44 0.57 0.55 0.63 0.62 0.59 0.58 0.55 0.55 0.50 0.44 0.87 0.76 0.59 0.70 0.69 0.73
0.97 0.94 0.90 0.83 0.79 0.82 0.88 0.90 0.88 0.86 0.84 0.82 0.65 0.81 0.83 0.63 0.52 0.59 0.55 0.57 0.59 0.55 0.48 0.45 0.44 0.46 0.52 0.49 0.49 0.53 0.50 0.63 0.59 0.49 0.80 0.62 0.65 0.59 0.63 0.56 0.73 0.87 0.82 0.90 0.90 0.83 0.81
Wind_Speed
9 9 8 8 8 8 8 8 8 8 8 8 9 9 9 9 10 10 10 11 11 11 10 10 10 10 8 9 10 6 7 9 10 10 9 8 8 8 8 10 6 6 6 8 4 3 6
10 10 9 9 9 9 9 9 9 9 9 9 9 10 10 10 11 11 11 11 12 12 11 11 11 10 10 9 7 7 8 9 11 11 10 10 9 9 11 10 6 6 6 7 6 7 7
11 11 10 10 10 10 10 10 10 10 10 10 10 10 11 11 11 11 12 12 12 13 12 12 11 11 13 14 9 8 8 11 11 12 12 12 12 10 11 10 7 10 9 8 5 6 4
12 12 11 10 10 10 10 10 11 11 10 11 11 11 11 11 11 11 12 12 13 12 12 12 11 12 14 15 15 15 12 12 13 13 14 13 12 13 11 10 12 10 8 7 9 9 9
12 12 11 11 11 11 11 11 12 12 12 12 12 12 12 12 12 13 13 13 13 12 12 12 11 12 14 13 16 17 14 14 13 13 13 13 11 10 9 9 8 6 7 10 7 9 9
12 12 12 12 12 12 12 12 13 13 13 13 12 13 13 13 13 13 14 13 12 12 11 12 13 11 12 13 15 16 17 15 14 13 14 14 12 11 11 10 8 8 6 6 9 11 10
12 11 12 12 12 13 13 14 14 14 14 13 13 13 13 14 13 13 12 10 10 10 13 14 11 13 11 10 12 14 16 16 15 14 14 15 12 12 14 14 15 15 13 7 7 12 12
11 11 12 12 13 13 14 14 14 14 14 14 14 14 14 14 14 14 12 11 10 13 15 18 20 19 17 12 11 13 13 16 16 15 14 13 14 15 15 17 17 16 16 14 11 10 9
10 11 11 12 13 13 14 14 14 14 14 14 14 14 14 14 14 12 13 14 13 13 14 16 19 19 16 14 14 15 15 17 17 17 16 15 14 15 15 14 15 15 14 13 11 10 10
9 10 10 11 12 13 13 13 14 13 13 14 14 14 14 14 12 12 12 13 13 13 12 13 13 15 17 14 14 18 17 15 17 18 17 17 16 18 18 18 14 14 16 17 13 13 11
7 8 9 10 11 12 13 13 13 13 13 14 14 14 14 13 13 12 12 12 12 10 10 8 9 11 12 15 9 10 16 16 16 17 16 17 17 17 17 16 14 14 15 16 16 14 11
6 7 8 9 10 11 12 12 12 12 13 13 14 14 14 11 13 14 14 12 11 10 11 10 8 10 11 14 15 10 14 16 15 17 18 18 18 18 17 17 17 14 15 16 14 11 11
5 6 7 8 9 10 10 11 11 12 13 13 14 15 14 13 12 12 12 11 10 10 6 10 11 12 13 14 15 13 15 15 14 13 16 16 19 18 19 18 16 15 13 12 11 11 13
4 5 6 7 8 8 9 10 10 11 12 13 14 14 12 14 14 12 11 11 11 11 12 13 10 12 11 14 16 15 15 15 17 18 14 14 13 17 19 18 14 16 14 12 14 12 13
4 5 5 6 7 7 8 9 9 10 11 12 11 7 8 10 13 12 12 13 11 6 7 9 10 10 11 13 15 17 17 17 18 18 18 13 16 16 17 18 16 16 19 18 16 18 15
5 5 6 6 7 7 8 9 10 10 11 10 7 7 8 6 7 10 11 13 12 13 11 11 10 9 9 11 15 16 18 19 19 19 19 16 18 19 17 16 20 16 16 15 14 15 16
7 6 6 7 7 8 8 9 10 10 10 6 4 5 3 5 6 8 10 12 14 13 10 11 14 16 15 13 12 13 19 18 17 19 19 21 18 19 16 13 18 15 16 19 17 16 14
8 8 8 8 8 9 9 10 10 10 9 4 5 5 6 7 7 8 10 10 11 12 13 14 13 18 18 16 13 12 11 12 11 13 18 19 18 18 22 20 17 19 18 17 17 20 18
9 9 9 9 9 10 10 10 10 10 8 4 4 6 6 6 7 9 12 14 15 12 12 13 13 14 16 18 15 14 16 15 16 13 13 13 15 15 18 17 19 19 18 19 18 19 22
11 10 10 10 10 11 11 11 10 10 8 5 4 3 5 7 8 11 12 12 13 11 12 10 14 15 15 16 17 17 19 16 10 13 16 17 18 18 18 18 19 20 19 19 18 19 20
12 12 12 12 12 12 12 12 11 11 9 4 4 5 5 5 8 11 13 13 13 14 14 13 12 13 15 16 17 17 18 19 13 14 14 14 18 21 24 22 21 23 23 20 23 21 23
12 13 13 13 13 13 13 13 12 12 9 5 7 7 8 11 11 11 11 12 13 14 13 15 14 15 15 14 16 16 18 14 17 16 15 16 16 15 20 22 21 24 23 22 22 17 23
12 13 14 14 14 15 15 14 13 12 8 7 8 9 9 10 10 11 10 13 13 12 13 13 14 15 15 15 15 15 16 17 17 15 15 15 15 16 19 18 20 21 21 22 22 22 17
12 13 14 15 15 16 15 15 14 12 10 8 9 10 9 11 11 13 16 16 15 14 15 16 16 17 17 19 19 17 18 19 17 17 17 15 17 17 21 18 21 22 19 21 22 23 22
12 13 14 15 16 16 15 15 14 13 12 9 9 10 10 12 13 15 15 16 16 16 16 17 17 16 17 17 17 16 16 19 21 22 22 19 17 18 17 20 23 23 22 16 17 27 26
13 14 15 16 16 17 16 16 15 15 14 12 10 10 11 13 12 13 16 16 17 15 16 15 15 15 16 13 15 15 14 16 12 10 13 13 14 17 18 17 19 20 20 18 21 25 22
14 15 16 17 18 18 18 18 17 17 16 14 13 13 14 14 15 14 16 18 18 17 17 17 15 14 14 13 13 14 16 13 13 14 13 12 14 18 20 20 24 20 21 22 20 21 25
16 17 18 19 19 19 19 19 19 18 17 16 15 15 15 16 21 18 15 17 19 19 19 17 17 15 15 15 14 14 14 12 12 12 14 15 16 17 19 23 26 17 17 16 24 30 28
18 19 20 20 20 20 21 20 20 19 19 17 16 18 19 19 21 27 29 30 28 26 22 20 20 18 14 11 12 13 14 13 13 14 13 16 18 18 18 20 24 24 25 25 26 22 24
Wind_Direction
275 282 289 293 300 307 311 310 303 297 292 288 282 279 279 278 277 275 274 273 274 274 272 269 265 264 248 234 232 239 226 220 219 217 220 224 245 276 293 311 249 217 254 278 266 276 278
271 276 281 286 292 299 305 306 303 297 292 287 285 281 278 277 277 276 275 275 273 272 270 267 262 256 238 236 223 234 232 221 222 218 223 230 239 278 289 297 295 264 268 286 280 283 297
266 270 277 281 288 293 299 303 302 297 292 287 285 283 280 278 277 277 276 275 274 271 267 264 257 250 241 231 232 238 234 231 228 226 230 235 244 270 281 294 297 266 278 271 251 287 306
263 267 272 277 283 289 294 298 299 298 293 288 285 283 281 279 276 278 278 276 273 269 265 260 255 252 247 239 247 241 247 242 235 235 238 243 253 270 265 271 287 282 272 274 260 272 277
260 264 269 274 280 286 290 294 296 296 293 289 285 283 281 280 277 277 278 277 271 265 261 256 254 252 253 243 237 238 242 236 237 238 240 242 255 266 261 266 283 281 265 284 268 268 278
259 263 267 272 278 284 288 291 293 293 290 288 285 282 280 279 277 277 278 272 264 264 256 252 252 261 253 246 242 237 234 235 237 241 239 240 246 255 249 252 251 265 289 307 281 262 265
258 262 267 273 278 283 285 288 290 290 289 286 284 282 279 278 276 277 274 261 264 260 254 245 246 242 263 248 254 231 225 227 233 240 237 239 239 244 247 248 256 271 264 266 294 269 256
258 263 269 274 279 282 285 287 289 289 287 285 283 282 279 276 275 270 258 254 273 271 268 253 248 251 251 259 246 234 228 225 228 235 240 241 240 243 250 256 263 270 273 270 268 274 259
261 266 272 276 281 284 286 287 287 287 286 285 284 283 280 278 273 256 251 259 275 277 266 263 243 240 242 240 246 245 228 231 228 231 237 234 241 239 243 254 261 264 264 269 281 277 245
265 271 275 280 284 286 287 287 287 286 285 285 283 283 283 280 257 262 255 256 268 275 269 261 235 237 235 240 256 236 229 223 229 233 235 244 246 250 252 250 256 266 261 269 271 269 265
271 276 281 285 287 289 288 288 287 286 285 285 284 282 281 270 257 250 265 264 269 261 268 228 223 246 230 221 247 231 224 224 231 232 237 242 244 251 257 255 252 256 258 268 276 258 276
279 283 287 291 292 292 292 290 288 287 286 285 284 282 279 259 251 253 264 261 255 250 256 229 230 233 234 225 242 248 223 227 232 240 244 244 247 248 252 256 259 265 265 276 264 258 269
290 292 295 298 300 299 297 294 292 291 289 288 286 281 269 259 246 262 255 245 243 239 252 237 243 234 232 228 233 238 225 229 228 233 245 252 252 252 249 259 258 254 256 266 260 262 251
310 306 308 309 310 309 307 303 300 298 296 294 289 279 264 253 248 254 242 236 237 232 261 277 240 219 222 227 227 235 231 231 233 238 250 240 258 245 244 243 248 243 237 235 245 248 259
341 329 325 324 324 324 322 317 312 307 305 301 294 271 264 256 243 239 235 232 217 264 280 274 269 240 250 237 239 227 235 234 235 232 240 254 252 253 242 245 237 251 248 244 253 258 265
359 350 342 338 336 334 334 331 324 315 312 304 282 268 259 245 226 229 232 233 229 261 264 265 258 256 266 272 241 239 233 237 239 238 235 246 258 259 262 259 240 234 245 244 249 250 258
13 7 0 353 347 342 340 339 336 327 319 296 269 269 227 232 228 237 234 231 245 275 260 256 258 262 268 271 283 274 236 246 248 243 241 239 245 256 259 256 235 237 244 245 245 241 245
24 19 14 8 3 356 349 345 342 339 332 284 275 269 231 228 243 236 232 229 247 272 278 266 253 252 255 263 266 268 267 247 260 257 245 240 245 250 249 253 252 242 240 242 234 251 245
27 24 20 14 9 4 359 355 352 351 349 306 269 265 231 239 250 243 258 274 273 265 266 262 258 254 250 251 256 259 267 265 271 269 249 254 249 263 261 257 255 250 247 244 244 245 245
30 25 18 12 6 1 357 353 349 346 340 311 278 292 254 250 249 266 268 267 274 284 253 257 264 265 265 258 256 257 263 263 267 273 267 246 246 246 252 250 247 258 253 243 246 244 245
26 21 14 8 2 357 353 348 342 337 330 299 258 277 296 262 266 267 268 275 281 283 270 272 260 258 254 260 263 263 261 263 257 270 266 257 256 259 255 257 261 257 257 251 240 245 242
18 15 11 6 1 357 352 346 342 335 324 287 284 288 286 276 276 281 274 270 269 266 266 267 269 268 260 250 257 262 262 260 250 263 263 265 259 267 260 257 263 268 257 255 253 254 245
9 8 7 5 2 358 355 351 345 341 321 287 297 293 277 271 274 274 275 299 282 286 276 281 276 279 274 263 277 271 263 268 252 256 262 262 258 252 260 256 271 259 249 250 251 251 253
357 358 359 360 359 358 357 356 354 350 344 305 292 294 279 275 276 275 287 287 292 287 277 276 279 274 264 274 277 269 267 263 254 254 257 253 250 250 257 261 252 244 258 256 257 254 258
345 346 347 348 349 351 350 350 350 347 339 319 299 295 284 281 284 281 286 285 290 285 283 279 274 268 266 266 270 272 274 265 263 255 253 255 249 252 258 255 262 252 255 258 258 254 254
333 334 336 337 338 339 339 339 337 336 333 322 304 299 289 286 278 292 288 281 279 284 280 281 281 277 259 261 258 264 265 263 264 288 236 248 253 247 253 255 246 247 268 258 259 254 249
325 325 326 327 328 328 328 328 327 325 323 317 301 299 291 285 282 285 280 281 280 282 277 280 280 276 279 252 257 257 258 261 252 244 267 256 255 252 254 257 249 257 271 264 248 255 268
321 321 321 321 321 321 321 321 320 318 316 314 302 297 293 286 287 280 281 283 281 274 271 272 279 264 265 260 258 255 260 260 259 261 253 260 263 255 255 249 250 265 256 254 264 266 258
317 317 318 317 317 317 317 316 315 314 311 309 301 300 296 286 281 288 282 277 269 267 269 265 262 266 256 265 264 261 264 257 256 263 264 267 258 260 258 260 257 257 251 263 263 258 246